アトラス彗星

C/2022 E2 ( ATLAS )

English version
Home page
Updated on February 10, 2024

---------------------------------------------------------------------

・ プロフィール

発見日 2022年3月7日
発見光度 18.7等
発見者 Asteroid Terrestrial-Impact Last Alert System (ATLAS) search program

・ 写真集

・ 軌道要素

Epoch 2023 Sept. 13.0 TT = JDT 2460200.5
T 2024 Sept. 14.01712 TT                                Rudenko
q   3.6667946            (2000.0)            P               Q
z  -0.0002309      Peri.   41.69524     -0.03469655     +0.83127237
 +/-0.0000008      Node   125.36926     +0.63752490     -0.40909124
e   1.0008466      Incl.  137.12921     +0.76964807     +0.37633842
>From 1167 observations 2022 Feb. 23-2023 Dec. 10, mean residual 0".4.

・ 星図

・ 光度変化

        m1 = 2.2 + 5 logΔ + 12.5 log r

---------------------------------------------------------------------

軌道要素はM.P.E.C. 2023-X256に掲載されたものです。
星図はステラナビゲータ Ver.10 (アストロアーツ) で作成したものです。
光度グラフはComet for Windowsで作成したものです。

---------------------------------------------------------------------

Copyright(C) Seiichi Yoshida (comet@aerith.net). All rights reserved.